Simultaneous Nadir Overpasses (SNOs) Predictions

Prediction of SNOs between AQUA and METOP-A Satellite Orbit:

Table of predicted SNOs for the next 14.0 days since TLE Epoch: 8/27/2016
Index Date (AQUA) Time (AQUA) Lat,Lon (AQUA) SZA (AQUA ) Date (METOP-A) Time (METOP-A) Lat,Lon (METOP-A) SZA (METOP-A ) Distance(km) Time Diff (sec)
1 08/29/2016 00:21:42 -73.19, -9.96 116.12 08/29/2016 00:20:36 -73.15, -12.80 116.05 91.55 66
2 08/29/2016 01:11:22 73.85, 156.26 64.61 08/29/2016 01:11:01 73.88, 156.20 64.64 3.19 21
3 08/29/2016 02:00:50 -73.96, -36.34 115.27 08/29/2016 02:01:41 -73.97, -36.24 115.27 3.00 51
4 08/31/2016 19:56:01 -73.36, 56.11 114.93 08/31/2016 19:54:53 -73.34, 54.03 114.87 66.54 68
5 08/31/2016 20:45:38 73.87,-137.35 65.63 08/31/2016 20:45:22 73.87,-137.41 65.63 2.21 16
6 08/31/2016 21:35:05 -73.93, 30.17 114.30 08/31/2016 21:36:02 -73.96, 30.14 114.28 3.36 57
7 09/03/2016 15:30:20 -73.60, 122.05 113.66 09/03/2016 15:29:09 -73.52, 120.86 113.68 38.55 71
8 09/03/2016 16:19:53 73.90, -70.98 66.69 09/03/2016 16:19:41 73.90, -70.91 66.69 1.90 12
9 09/03/2016 17:09:20 -73.95, 96.55 113.25 09/03/2016 17:10:22 -73.94, 96.52 113.27 1.44 62
10 09/06/2016 11:04:39 -73.78,-171.92 112.42 09/06/2016 11:03:26 -73.70,-172.31 112.48 14.91 73
11 09/06/2016 11:54:08 73.88, -4.50 67.70 09/06/2016 11:54:02 73.89, -4.54 67.71 1.30 6
12 09/06/2016 12:43:36 -73.99, 162.91 112.18 09/06/2016 12:44:42 -73.98, 163.01 112.20 3.17 66
13 09/09/2016 06:38:55 -73.82,-105.57 111.33 09/09/2016 06:37:44 -73.84,-105.58 111.30 1.72 71
14 09/09/2016 07:28:24 73.92, 61.85 68.80 09/09/2016 07:28:22 73.92, 61.95 68.79 3.22 2




NCC Satellite Simultaneous Nadir Overpasses (SNOs) Prediction Service
